Weather History for Farmington, MO

Change the Weather History Date:

Saturday, June 7, 2014

  Actual Average Record
Temperature  
Mean Temperature 70 °F -  
Max Temperature 75 °F 77 °F 93 °F (2011)
Min Temperature 64 °F 59 °F 44 °F (1998)
Cooling Degree Days 4    
Growing Degree Days 20 (Base 50)    
Moisture  
Dew Point 66 °F    
Average Humidity 87    
Maximum Humidity 100    
Minimum Humidity 73    
Precipitation  
Precipitation 0.33 in - - ()
Sea Level Pressure  
Sea Level Pressure 29.91 in    
Wind  
Wind Speed 5 mph (SSW)    
Max Wind Speed 15 mph    
Max Gust Speed 22 mph    
Visibility 7 miles    
Events Thunderstorm    
Averages and records for this station are not official NWS values.
T = Trace of Precipitation, MM = Missing Value Source: NWS Daily Summary

Daily Weather History Graph

Daily Weather History Graph

Search for Another Location

Airport:

Trip Planner

Search our weather history database for the weather conditions in past years. The results will help you decide how hot, cold, wet, or windy it might be!

Date:

Astronomy

Jun. 07, 2014 Rise Set
Actual Time 5:39 AM CDT 8:21 PM CDT
Civil Twilight 5:08 AM CDT 8:52 PM CDT
Nautical Twilight 4:30 AM CDT 9:31 PM CDT
Astronomical Twilight 3:46 AM CDT 10:15 PM CDT
Moon 2:45 PM CDT (6/7) 1:55 AM CDT (6/7)
Length of Visible Light 15h 43m
Length of Day
14h 41m
Waxing Gibbous, 68% of the Moon is Illuminated
Jun 7
Waxing Gibbous
Jun 12
Full
Jun 19
Last Quarter
Jun 27
New
Jul 5
First Quarter

Hourly Weather History & Observations

Time (CDT) Temp. Dew Point Humidity Pressure Visibility Wind Dir Wind Speed Gust Speed Precip Events Conditions
12:15 AM 68.0 °F 66.2 °F 94% 29.96 in 5.0 mi ESE 3.5 mph - N/A   Clear
12:35 AM 66.2 °F 64.4 °F 94% 29.96 in 5.0 mi Calm Calm - N/A   Clear
12:55 AM 66.2 °F 64.4 °F 94% 29.96 in 2.5 mi Calm Calm - N/A   Clear
1:15 AM 66.2 °F 64.4 °F 94% 29.97 in 3.0 mi Calm Calm - N/A   Clear
1:35 AM 64.4 °F 62.6 °F 94% 29.98 in 2.0 mi Calm Calm - N/A   Mostly Cloudy
1:55 AM 66.2 °F 64.4 °F 94% 29.98 in 3.0 mi Calm Calm - N/A   Mostly Cloudy
2:15 AM 66.2 °F 64.4 °F 94% 29.98 in 3.0 mi Calm Calm - N/A   Mostly Cloudy
2:35 AM 66.2 °F 64.4 °F 94% 29.98 in 2.5 mi Calm Calm - N/A   Overcast
2:55 AM 66.2 °F 64.4 °F 94% 29.98 in 3.0 mi Calm Calm - N/A   Mostly Cloudy
3:15 AM 66.2 °F 64.4 °F 94% 29.98 in 5.0 mi Calm Calm - N/A   Mostly Cloudy
3:35 AM 66.2 °F 64.4 °F 94% 29.98 in 4.0 mi Calm Calm - N/A   Overcast
3:55 AM 66.2 °F 64.4 °F 94% 29.98 in 2.5 mi Calm Calm - N/A   Overcast
4:15 AM 66.2 °F 64.4 °F 94% 29.98 in 3.0 mi Calm Calm - N/A   Overcast
4:35 AM 66.2 °F 64.4 °F 94% 29.98 in 4.0 mi Calm Calm - N/A   Mostly Cloudy
4:55 AM 66.2 °F 64.4 °F 94% 29.98 in 5.0 mi Calm Calm - N/A   Partly Cloudy
5:15 AM 66.2 °F 64.4 °F 94% 29.97 in 4.0 mi ENE 3.5 mph - N/A   Scattered Clouds
5:35 AM 66.2 °F 64.4 °F 94% 29.97 in 3.0 mi ENE 5.8 mph - N/A   Mostly Cloudy
5:55 AM 66.2 °F 64.4 °F 94% 29.96 in 2.5 mi East 5.8 mph - N/A   Overcast
6:15 AM 66.2 °F 64.4 °F 94% 29.95 in 2.5 mi East 4.6 mph - N/A   Mostly Cloudy
6:35 AM 66.2 °F 66.2 °F 100% 29.96 in 2.5 mi Calm Calm - N/A   Clear
7:15 AM 68.0 °F 66.2 °F 94% 29.98 in 3.0 mi SSW 4.6 mph - N/A   Mostly Cloudy
8:15 AM 69.8 °F 68.0 °F 94% 29.98 in 2.5 mi ESE 8.1 mph - N/A   Overcast
8:35 AM 69.8 °F 66.2 °F 88% 29.97 in 3.0 mi SSE 6.9 mph - N/A   Overcast
8:55 AM 69.8 °F 68.0 °F 94% 29.93 in 3.0 mi SSE 10.4 mph - N/A   Overcast
9:15 AM 71.6 °F 68.0 °F 88% 29.93 in 3.0 mi SSE 11.5 mph - N/A   Overcast
9:35 AM 71.6 °F 68.0 °F 88% 29.93 in 3.0 mi SSE 11.5 mph 18.4 mph N/A   Overcast
9:55 AM 71.6 °F 68.0 °F 88% 29.92 in 4.0 mi SE 11.5 mph - N/A   Overcast
10:15 AM 71.6 °F 68.0 °F 88% 29.93 in 5.0 mi SSE 9.2 mph - N/A   Overcast
10:35 AM 73.4 °F 66.2 °F 78% 29.93 in 8.0 mi South 9.2 mph - N/A   Mostly Cloudy
10:55 AM 73.4 °F 66.2 °F 78% 29.97 in 10.0 mi SSW 10.4 mph - N/A   Mostly Cloudy
11:15 AM 71.6 °F 66.2 °F 83% 29.98 in 10.0 mi WSW 11.5 mph - N/A   Overcast
11:35 AM 71.6 °F 66.2 °F 83% 29.98 in 10.0 mi SW 5.8 mph - N/A   Mostly Cloudy
11:55 AM 69.8 °F 66.2 °F 88% 29.97 in 8.0 mi SSW 5.8 mph - 0.03 in Thunderstorm Overcast
12:15 PM 69.8 °F 66.2 °F 88% 29.95 in 10.0 mi SSE 5.8 mph - 0.08 in   Overcast
12:35 PM 69.8 °F 66.2 °F 88% 29.92 in 10.0 mi SE 10.4 mph - 0.13 in   Overcast
12:55 PM 68.0 °F 66.2 °F 94% 29.91 in 10.0 mi SE 8.1 mph - 0.15 in   Mostly Cloudy
1:15 PM 69.8 °F 66.2 °F 88% 29.91 in 9.0 mi SE 6.9 mph - 0.13 in   Overcast
1:35 PM 69.8 °F 68.0 °F 94% 29.91 in 10.0 mi SSE 10.4 mph - 0.13 in   Overcast
1:55 PM 71.6 °F 69.8 °F 94% 29.89 in 10.0 mi SSE 15.0 mph 18.4 mph 0.13 in   Overcast
2:15 PM 73.4 °F 69.8 °F 88% 29.88 in 10.0 mi South 13.8 mph 17.3 mph N/A   Mostly Cloudy
2:35 PM 73.4 °F 69.8 °F 88% 29.87 in 10.0 mi South 11.5 mph - N/A   Mostly Cloudy
2:55 PM 75.2 °F 68.0 °F 78% 29.85 in 10.0 mi SSE 11.5 mph 18.4 mph N/A   Mostly Cloudy
3:15 PM 75.2 °F 69.8 °F 83% 29.84 in 10.0 mi SSE 9.2 mph - N/A   Mostly Cloudy
3:35 PM 75.2 °F 68.0 °F 78% 29.84 in 10.0 mi South 11.5 mph - N/A   Mostly Cloudy
3:55 PM 75.2 °F 69.8 °F 83% 29.83 in 10.0 mi South 12.7 mph - N/A   Overcast
4:15 PM 73.4 °F 69.8 °F 88% 29.83 in 10.0 mi South 12.7 mph 17.3 mph N/A   Overcast
4:35 PM 75.2 °F 68.0 °F 78% 29.83 in 10.0 mi South 15.0 mph 21.9 mph N/A   Overcast
4:55 PM 75.2 °F 68.0 °F 78% 29.83 in 10.0 mi South 15.0 mph - N/A   Mostly Cloudy
5:15 PM 73.4 °F 69.8 °F 88% 29.82 in 10.0 mi South 13.8 mph - N/A   Mostly Cloudy
5:35 PM 73.4 °F 68.0 °F 83% 29.82 in 10.0 mi SSW 15.0 mph 20.7 mph N/A   Scattered Clouds
5:55 PM 73.4 °F 68.0 °F 83% 29.80 in 10.0 mi South 11.5 mph - N/A   Mostly Cloudy
6:15 PM 73.4 °F 68.0 °F 83% 29.79 in 10.0 mi South 13.8 mph - N/A   Mostly Cloudy
6:35 PM 73.4 °F 69.8 °F 88% 29.80 in 10.0 mi SW 12.7 mph - 0.02 in   Mostly Cloudy
6:55 PM 73.4 °F 69.8 °F 88% 29.81 in 10.0 mi West 6.9 mph - 0.02 in   Scattered Clouds
7:15 PM 75.2 °F 66.2 °F 73% 29.82 in 10.0 mi West 11.5 mph 17.3 mph N/A   Clear
7:35 PM 75.2 °F 66.2 °F 73% 29.82 in 10.0 mi WNW 4.6 mph - N/A   Clear
7:55 PM 73.4 °F 64.4 °F 73% 29.82 in 10.0 mi NW 5.8 mph 16.1 mph N/A   Clear
8:15 PM 73.4 °F 64.4 °F 73% 29.83 in 10.0 mi West 6.9 mph - N/A   Clear
8:35 PM 71.6 °F 64.4 °F 78% 29.84 in 10.0 mi West 5.8 mph - N/A   Clear
8:55 PM 71.6 °F 64.4 °F 78% 29.84 in 10.0 mi West 4.6 mph - N/A   Clear
9:15 PM 71.6 °F 64.4 °F 78% 29.85 in 10.0 mi West 5.8 mph - N/A   Clear
9:35 PM 69.8 °F 64.4 °F 83% 29.86 in 10.0 mi SW 4.6 mph - N/A   Clear
9:55 PM 69.8 °F 64.4 °F 83% 29.86 in 10.0 mi West 5.8 mph - N/A   Clear
10:15 PM 69.8 °F 64.4 °F 83% 29.86 in 10.0 mi West 5.8 mph - N/A   Clear
10:35 PM 69.8 °F 62.6 °F 78% 29.87 in 10.0 mi West 5.8 mph - N/A   Scattered Clouds
10:55 PM 69.8 °F 62.6 °F 78% 29.87 in 10.0 mi WNW 6.9 mph - N/A   Mostly Cloudy
11:15 PM 69.8 °F 62.6 °F 78% 29.86 in 10.0 mi West 9.2 mph - N/A   Mostly Cloudy
11:35 PM 69.8 °F 62.6 °F 78% 29.86 in 10.0 mi West 8.1 mph - N/A   Scattered Clouds
11:55 PM 68.0 °F 62.6 °F 83% 29.87 in 10.0 mi WNW 9.2 mph - N/A   Scattered Clouds